Terminal Aerodrome Forecast
Issued by NWS

Home | Current Version | Previous Version | Graphics & Text | Print | Product List | Glossary On
Versions: 1 2 3 4 5 6 7 8 9 10 11 12 13 14 15 16 17 18 19 20 21 22 23
000
FTUS43 KTOP 240700 AAA
TAFMHK
TAF AMD
KMHK 240706Z 2407/2506 00000KT 4SM BR BCFG BKN250
     FM241530 22012KT P6SM SCT250
     FM242300 25002KT P6SM SKC=

USA.gov is the U.S. government's official web portal to all federal, state and local government web resources and services.